Time,TemperatureF,DewpointF,PressureIn,WindDirection,WindDirectionDegrees,WindSpeedMPH,WindSpeedGustMPH,Humidity,HourlyPrecipIn,Conditions,Clouds,dailyrainin,SoftwareType,DateUTC
2013-02-03 00:15:00,20.1,15.9,30.25,WNW,293,2.9,3.5,84,0.00,,,0.00,WUHU216HW,2013-02-03 07:15:00,
2013-02-03 00:20:00,20.3,16.4,30.25,West,270,0.6,4.4,85,0.00,,,0.00,WUHU216HW,2013-02-03 07:20:00,
2013-02-03 00:25:00,20.4,16.6,30.24,West,270,0.0,4.4,85,0.00,,,0.00,WUHU216HW,2013-02-03 07:25:00,
2013-02-03 00:30:00,20.4,16.6,30.25,WNW,293,3.1,3.3,85,0.00,,,0.00,WUHU216HW,2013-02-03 07:30:00,
2013-02-03 00:35:00,20.4,16.6,30.25,WNW,293,5.1,5.1,85,0.00,,,0.00,WUHU216HW,2013-02-03 07:35:00,
2013-02-03 00:40:00,20.4,16.3,30.24,West,270,4.6,5.1,84,0.00,,,0.00,WUHU216HW,2013-02-03 07:40:00,
2013-02-03 00:45:00,20.4,16.3,30.24,WNW,293,6.2,6.2,84,0.00,,,0.00,WUHU216HW,2013-02-03 07:45:00,
2013-02-03 00:50:00,20.4,16.3,30.23,WSW,248,5.1,6.2,85,0.00,,,0.00,WUHU216HW,2013-02-03 07:50:00,
2013-02-03 00:55:00,20.3,16.1,30.23,West,270,0.0,5.1,84,0.00,,,0.00,WUHU216HW,2013-02-03 07:55:00,
2013-02-03 01:00:00,19.9,15.8,30.23,West,270,0.0,5.1,84,0.00,,,0.00,WUHU216HW,2013-02-03 08:00:00,
2013-02-03 01:05:00,19.9,15.8,30.23,West,270,0.0,0.0,84,0.00,,,0.00,WUHU216HW,2013-02-03 08:05:00,
2013-02-03 01:10:00,19.9,15.8,30.23,West,270,1.7,5.1,84,0.00,,,0.00,WUHU216HW,2013-02-03 08:10:00,
2013-02-03 01:15:00,19.9,15.8,30.22,WNW,293,1.1,5.1,84,0.00,,,0.00,WUHU216HW,2013-02-03 08:15:00,
2013-02-03 01:21:00,19.9,15.8,30.22,WNW,293,7.1,7.1,84,0.00,,,0.00,WUHU216HW,2013-02-03 08:21:00,
2013-02-03 01:26:00,20.3,16.4,30.22,West,270,1.7,7.1,85,0.00,,,0.00,WUHU216HW,2013-02-03 08:26:00,
2013-02-03 01:31:00,20.3,16.1,30.22,West,270,0.0,7.1,84,0.00,,,0.00,WUHU216HW,2013-02-03 08:31:00,
2013-02-03 01:36:00,20.1,15.9,30.22,WNW,293,5.1,5.1,84,0.00,,,0.00,WUHU216HW,2013-02-03 08:36:00,
2013-02-03 01:41:00,19.9,15.8,30.22,West,270,0.0,5.1,84,0.00,,,0.00,WUHU216HW,2013-02-03 08:41:00,
2013-02-03 01:46:00,19.9,15.8,30.22,West,270,3.3,5.1,84,0.00,,,0.00,WUHU216HW,2013-02-03 08:46:00,
2013-02-03 01:51:00,19.7,15.6,30.22,WNW,293,6.2,6.9,84,0.00,,,0.00,WUHU216HW,2013-02-03 08:51:00,
2013-02-03 01:56:00,19.9,15.8,30.22,West,270,0.0,6.9,84,0.00,,,0.00,WUHU216HW,2013-02-03 08:56:00,
2013-02-03 02:02:00,20.1,15.9,30.21,West,270,4.2,4.9,84,0.00,,,0.00,WUHU216HW,2013-02-03 09:02:00,
2013-02-03 02:07:00,19.9,15.8,30.22,West,270,0.0,4.9,84,0.00,,,0.00,WUHU216HW,2013-02-03 09:07:00,
2013-02-03 02:12:00,19.9,15.8,30.22,West,270,0.0,1.7,84,0.00,,,0.00,WUHU216HW,2013-02-03 09:12:00,
2013-02-03 02:17:00,19.7,15.6,30.22,West,270,0.0,0.0,84,0.00,,,0.00,WUHU216HW,2013-02-03 09:17:00,
2013-02-03 02:22:00,19.7,15.6,30.22,WNW,293,4.4,4.4,84,0.00,,,0.00,WUHU216HW,2013-02-03 09:22:00,
2013-02-03 02:27:00,19.7,15.6,30.21,WNW,293,4.2,4.4,84,0.00,,,0.00,WUHU216HW,2013-02-03 09:27:00,
2013-02-03 02:32:00,19.9,15.8,30.21,WNW,293,7.8,7.8,84,0.00,,,0.00,WUHU216HW,2013-02-03 09:32:00,
2013-02-03 02:37:00,19.9,15.8,30.22,West,270,2.0,7.8,84,0.00,,,0.00,WUHU216HW,2013-02-03 09:37:00,
2013-02-03 02:42:00,19.5,15.1,30.22,West,270,0.0,6.7,83,0.00,,,0.00,WUHU216HW,2013-02-03 09:42:00,
2013-02-03 02:47:00,19.2,14.8,30.22,WNW,293,3.5,3.5,83,0.00,,,0.00,WUHU216HW,2013-02-03 09:47:00,
2013-02-03 02:52:00,19.2,15.0,30.21,WNW,293,0.0,3.5,84,0.00,,,0.00,WUHU216HW,2013-02-03 09:52:00,
2013-02-03 02:57:00,19.2,15.3,30.20,West,270,0.0,0.6,85,0.00,,,0.00,WUHU216HW,2013-02-03 09:57:00,
2013-02-03 03:02:00,19.2,15.3,30.21,West,270,0.0,0.6,85,0.00,,,0.00,WUHU216HW,2013-02-03 10:02:00,
2013-02-03 03:07:00,19.0,15.1,30.20,West,270,1.3,1.3,85,0.00,,,0.00,WUHU216HW,2013-02-03 10:07:00,
2013-02-03 03:12:00,19.0,15.1,30.20,West,270,2.0,3.3,85,0.00,,,0.00,WUHU216HW,2013-02-03 10:12:00,
2013-02-03 03:17:00,18.8,14.9,30.20,West,270,2.0,3.3,85,0.00,,,0.00,WUHU216HW,2013-02-03 10:17:00,
2013-02-03 03:22:00,18.8,14.9,30.19,West,270,0.0,2.0,85,0.00,,,0.00,WUHU216HW,2013-02-03 10:22:00,
2013-02-03 03:27:00,18.5,14.3,30.19,West,270,0.0,1.1,84,0.00,,,0.00,WUHU216HW,2013-02-03 10:27:00,
2013-02-03 03:32:00,18.6,14.8,30.18,West,270,0.0,0.0,85,0.00,,,0.00,WUHU216HW,2013-02-03 10:32:00,
2013-02-03 03:37:00,18.6,14.8,30.18,West,270,0.0,0.0,85,0.00,,,0.00,WUHU216HW,2013-02-03 10:37:00,
2013-02-03 03:42:00,18.8,14.9,30.18,West,270,0.0,0.0,85,0.00,,,0.00,WUHU216HW,2013-02-03 10:42:00,
2013-02-03 03:47:00,19.2,15.3,30.18,West,270,2.6,2.6,85,0.00,,,0.00,WUHU216HW,2013-02-03 10:47:00,
2013-02-03 03:53:00,19.2,15.3,30.18,WNW,293,5.3,5.3,85,0.00,,,0.00,WUHU216HW,2013-02-03 10:53:00,
2013-02-03 03:58:00,19.2,15.3,30.18,WNW,293,7.3,7.3,85,0.00,,,0.00,WUHU216HW,2013-02-03 10:58:00,
2013-02-03 04:03:00,19.4,15.7,30.17,West,270,3.3,7.3,85,0.00,,,0.00,WUHU216HW,2013-02-03 11:03:00,
2013-02-03 04:08:00,19.2,15.3,30.17,WNW,293,4.2,4.9,85,0.00,,,0.00,WUHU216HW,2013-02-03 11:08:00,
2013-02-03 04:13:00,19.2,15.3,30.17,West,270,0.0,4.2,85,0.00,,,0.00,WUHU216HW,2013-02-03 11:13:00,
2013-02-03 04:18:00,19.2,15.3,30.17,West,270,0.0,4.2,85,0.00,,,0.00,WUHU216HW,2013-02-03 11:18:00,
2013-02-03 04:23:00,19.0,15.1,30.18,NNW,338,0.0,0.0,85,0.00,,,0.00,WUHU216HW,2013-02-03 11:23:00,
2013-02-03 04:28:00,18.8,14.9,30.17,NNW,338,0.0,0.0,85,0.00,,,0.00,WUHU216HW,2013-02-03 11:28:00,
2013-02-03 04:33:00,19.0,15.1,30.17,NNW,338,0.0,0.0,85,0.00,,,0.00,WUHU216HW,2013-02-03 11:33:00,
2013-02-03 04:38:00,18.8,14.9,30.17,WNW,293,3.8,4.4,85,0.00,,,0.00,WUHU216HW,2013-02-03 11:38:00,
2013-02-03 04:43:00,18.8,14.9,30.17,WNW,293,4.4,7.8,85,0.00,,,0.00,WUHU216HW,2013-02-03 11:43:00,
2013-02-03 04:48:00,18.6,14.8,30.17,West,270,0.0,7.8,85,0.00,,,0.00,WUHU216HW,2013-02-03 11:48:00,
2013-02-03 04:53:00,18.3,14.1,30.18,West,270,4.9,6.7,84,0.00,,,0.00,WUHU216HW,2013-02-03 11:53:00,
2013-02-03 04:58:00,18.3,14.1,30.17,WNW,293,6.2,6.4,84,0.00,,,0.00,WUHU216HW,2013-02-03 11:58:00,
2013-02-03 05:03:00,18.5,14.6,30.17,WSW,248,0.0,6.7,85,0.00,,,0.00,WUHU216HW,2013-02-03 12:03:00,
2013-02-03 05:08:00,18.8,14.9,30.17,WSW,248,0.0,6.7,85,0.00,,,0.00,WUHU216HW,2013-02-03 12:08:00,
2013-02-03 05:13:00,18.8,14.9,30.17,WSW,248,0.0,0.0,85,0.00,,,0.00,WUHU216HW,2013-02-03 12:13:00,
2013-02-03 05:18:00,18.6,14.8,30.16,WSW,248,0.0,0.0,85,0.00,,,0.00,WUHU216HW,2013-02-03 12:18:00,
2013-02-03 05:24:00,18.6,14.8,30.16,West,270,0.0,0.0,85,0.00,,,0.00,WUHU216HW,2013-02-03 12:24:00,
2013-02-03 05:29:00,18.6,14.8,30.16,West,270,2.6,2.6,85,0.00,,,0.00,WUHU216HW,2013-02-03 12:29:00,
2013-02-03 05:34:00,18.6,14.8,30.16,NW,315,4.0,4.0,85,0.00,,,0.00,WUHU216HW,2013-02-03 12:34:00,
2013-02-03 05:39:00,18.8,14.9,30.15,West,270,1.5,4.0,85,0.00,,,0.00,WUHU216HW,2013-02-03 12:39:00,
2013-02-03 05:44:00,18.8,14.9,30.15,WNW,293,5.1,5.1,85,0.00,,,0.00,WUHU216HW,2013-02-03 12:44:00,
2013-02-03 05:49:00,18.6,14.8,30.15,West,270,0.0,5.1,85,0.00,,,0.00,WUHU216HW,2013-02-03 12:49:00,
2013-02-03 05:55:00,18.5,14.6,30.15,NNW,338,0.0,5.1,85,0.00,,,0.00,WUHU216HW,2013-02-03 12:55:00,
2013-02-03 06:00:00,18.5,14.6,30.15,NE,45,6.7,6.7,85,0.00,,,0.00,WUHU216HW,2013-02-03 13:00:00,
2013-02-03 06:05:00,19.0,15.1,30.15,NNE,23,0.0,6.7,85,0.00,,,0.00,WUHU216HW,2013-02-03 13:05:00,
2013-02-03 06:10:00,19.0,15.1,30.15,NNW,338,0.0,6.7,85,0.00,,,0.00,WUHU216HW,2013-02-03 13:10:00,
2013-02-03 06:15:00,19.0,15.1,30.14,WNW,293,4.0,5.3,85,0.00,,,0.00,WUHU216HW,2013-02-03 13:15:00,
2013-02-03 06:20:00,19.0,15.1,30.15,NNW,338,0.0,5.3,85,0.00,,,0.00,WUHU216HW,2013-02-03 13:20:00,
2013-02-03 06:25:00,19.2,15.3,30.15,NNE,23,0.0,5.1,85,0.00,,,0.00,WUHU216HW,2013-02-03 13:25:00,
2013-02-03 06:30:00,19.2,15.3,30.15,NNE,23,0.0,2.2,85,0.00,,,0.00,WUHU216HW,2013-02-03 13:30:00,
2013-02-03 06:36:00,19.2,15.3,30.15,WNW,293,6.7,6.7,85,0.00,,,0.00,WUHU216HW,2013-02-03 13:36:00,
2013-02-03 06:41:00,19.2,15.3,30.16,WNW,293,7.6,7.6,85,0.00,,,0.00,WUHU216HW,2013-02-03 13:41:00,
2013-02-03 06:46:00,19.5,15.7,30.15,WNW,293,0.0,7.6,85,0.00,,,0.00,WUHU216HW,2013-02-03 13:46:00,
2013-02-03 06:51:00,19.4,15.5,30.16,WNW,293,5.5,5.5,85,0.00,,,0.00,WUHU216HW,2013-02-03 13:51:00,
2013-02-03 06:56:00,19.4,15.5,30.16,West,270,0.0,5.5,85,0.00,,,0.00,WUHU216HW,2013-02-03 13:56:00,
2013-02-03 07:01:00,19.5,15.7,30.16,WNW,293,6.4,7.3,85,0.00,,,0.00,WUHU216HW,2013-02-03 14:01:00,
2013-02-03 07:06:00,19.5,15.7,30.15,West,270,0.0,7.3,85,0.00,,,0.00,WUHU216HW,2013-02-03 14:06:00,
2013-02-03 07:11:00,19.5,15.7,30.15,West,270,0.0,6.4,85,0.00,,,0.00,WUHU216HW,2013-02-03 14:11:00,
2013-02-03 07:16:00,19.5,15.7,30.15,West,270,0.0,4.4,85,0.00,,,0.00,WUHU216HW,2013-02-03 14:16:00,
2013-02-03 07:21:00,19.5,15.7,30.15,West,270,0.0,4.4,85,0.00,,,0.00,WUHU216HW,2013-02-03 14:21:00,
2013-02-03 07:26:00,19.5,15.7,30.15,West,270,0.0,0.0,85,0.00,,,0.00,WUHU216HW,2013-02-03 14:26:00,
2013-02-03 07:31:00,19.5,15.7,30.15,WNW,293,0.0,6.7,85,0.00,,,0.00,WUHU216HW,2013-02-03 14:31:00,
2013-02-03 07:36:00,19.9,16.0,30.15,NNW,338,0.0,6.7,85,0.00,,,0.00,WUHU216HW,2013-02-03 14:36:00,
2013-02-03 07:41:00,20.1,16.2,30.15,WNW,293,0.0,0.0,85,0.00,,,0.00,WUHU216HW,2013-02-03 14:41:00,
2013-02-03 07:46:00,20.1,16.2,30.15,WNW,293,4.2,4.2,85,0.00,,,0.00,WUHU216HW,2013-02-03 14:46:00,
2013-02-03 07:51:00,20.3,16.4,30.15,WNW,293,0.0,4.2,85,0.00,,,0.00,WUHU216HW,2013-02-03 14:51:00,
2013-02-03 07:57:00,20.4,16.8,30.15,WNW,293,0.0,4.2,86,0.00,,,0.00,WUHU216HW,2013-02-03 14:57:00,
2013-02-03 08:02:00,20.4,16.8,30.15,WNW,293,0.0,0.0,86,0.00,,,0.00,WUHU216HW,2013-02-03 15:02:00,
2013-02-03 08:07:00,20.8,17.2,30.15,WNW,293,0.0,0.0,86,0.00,,,0.00,WUHU216HW,2013-02-03 15:07:00,
2013-02-03 08:12:00,20.8,17.2,30.16,West,270,0.0,2.6,86,0.00,,,0.00,WUHU216HW,2013-02-03 15:12:00,
2013-02-03 08:18:00,21.0,17.4,30.16,West,270,0.0,4.4,86,0.00,,,0.00,WUHU216HW,2013-02-03 15:18:00,
2013-02-03 08:23:00,20.8,17.2,30.16,West,270,0.0,4.4,86,0.00,,,0.00,WUHU216HW,2013-02-03 15:23:00,
2013-02-03 08:28:00,21.0,17.4,30.15,West,270,4.4,4.4,86,0.00,,,0.00,WUHU216HW,2013-02-03 15:28:00,
2013-02-03 08:33:00,21.2,17.6,30.15,WNW,293,2.6,4.4,86,0.00,,,0.00,WUHU216HW,2013-02-03 15:33:00,
2013-02-03 08:39:00,21.3,17.7,30.15,West,270,0.0,4.2,86,0.00,,,0.00,WUHU216HW,2013-02-03 15:39:00,
2013-02-03 08:44:00,21.5,17.9,30.16,WNW,293,2.9,4.6,86,0.00,,,0.00,WUHU216HW,2013-02-03 15:44:00,
2013-02-03 08:49:00,21.5,17.9,30.15,WNW,293,2.9,4.6,86,0.00,,,0.00,WUHU216HW,2013-02-03 15:49:00,
2013-02-03 08:54:00,21.9,18.3,30.15,WNW,293,0.0,2.9,86,0.00,,,0.00,WUHU216HW,2013-02-03 15:54:00,
2013-02-03 08:59:00,22.1,18.5,30.15,West,270,0.0,2.9,86,0.00,,,0.00,WUHU216HW,2013-02-03 15:59:00,
2013-02-03 09:04:00,22.4,18.8,30.15,North,0,0.0,1.3,86,0.00,,,0.00,WUHU216HW,2013-02-03 16:04:00,
2013-02-03 09:09:00,22.8,19.2,30.15,North,0,0.0,1.3,86,0.00,,,0.00,WUHU216HW,2013-02-03 16:09:00,
2013-02-03 09:14:00,22.8,19.4,30.15,North,0,0.0,0.0,86,0.00,,,0.00,WUHU216HW,2013-02-03 16:14:00,
2013-02-03 09:20:00,23.3,19.7,30.15,North,0,0.0,0.0,86,0.00,,,0.00,WUHU216HW,2013-02-03 16:20:00,
2013-02-03 09:25:00,23.3,19.7,30.15,North,0,0.0,0.0,86,0.00,,,0.00,WUHU216HW,2013-02-03 16:25:00,
2013-02-03 09:30:00,23.5,19.9,30.15,North,0,0.0,0.0,86,0.00,,,0.00,WUHU216HW,2013-02-03 16:30:00,
2013-02-03 09:35:00,23.9,20.3,30.15,NNE,23,0.0,0.0,86,0.00,,,0.00,WUHU216HW,2013-02-03 16:35:00,
2013-02-03 09:40:00,24.0,20.4,30.15,NNE,23,0.0,0.0,86,0.00,,,0.00,WUHU216HW,2013-02-03 16:40:00,
2013-02-03 09:45:00,24.4,20.8,30.16,NNE,23,0.0,0.0,86,0.00,,,0.00,WUHU216HW,2013-02-03 16:45:00,
2013-02-03 09:50:00,24.4,20.5,30.15,NE,45,0.0,0.0,85,0.00,,,0.00,WUHU216HW,2013-02-03 16:50:00,
2013-02-03 09:55:00,24.6,20.7,30.16,NE,45,0.0,0.0,85,0.00,,,0.00,WUHU216HW,2013-02-03 16:55:00,
2013-02-03 10:01:00,24.6,20.7,30.16,NE,45,0.0,0.0,85,0.00,,,0.00,WUHU216HW,2013-02-03 17:01:00,
2013-02-03 10:06:00,24.9,21.0,30.16,NE,45,0.0,0.0,85,0.00,,,0.00,WUHU216HW,2013-02-03 17:06:00,
2013-02-03 10:11:00,25.1,21.2,30.16,NE,45,0.0,0.0,85,0.00,,,0.00,WUHU216HW,2013-02-03 17:11:00,
2013-02-03 10:16:00,25.3,21.4,30.16,NE,45,0.0,0.0,85,0.00,,,0.00,WUHU216HW,2013-02-03 17:16:00,
2013-02-03 10:21:00,25.5,21.6,30.16,NW,315,4.6,4.6,85,0.00,,,0.00,WUHU216HW,2013-02-03 17:21:00,
2013-02-03 10:26:00,25.7,21.7,30.16,NW,315,0.0,4.6,85,0.00,,,0.00,WUHU216HW,2013-02-03 17:26:00,
2013-02-03 10:31:00,26.0,22.1,30.16,WNW,293,0.0,4.6,85,0.00,,,0.00,WUHU216HW,2013-02-03 17:31:00,
2013-02-03 10:36:00,26.2,22.0,30.16,WNW,293,0.0,0.0,84,0.00,,,0.00,WUHU216HW,2013-02-03 17:36:00,
2013-02-03 10:41:00,26.4,22.1,30.17,NE,45,2.0,2.4,84,0.00,,,0.00,WUHU216HW,2013-02-03 17:41:00,
2013-02-03 10:46:00,26.6,22.3,30.17,NE,45,0.0,2.4,84,0.00,,,0.00,WUHU216HW,2013-02-03 17:46:00,
2013-02-03 10:51:00,26.6,22.3,30.17,NE,45,0.0,2.0,84,0.00,,,0.00,WUHU216HW,2013-02-03 17:51:00,
2013-02-03 10:56:00,26.7,22.2,30.17,NE,45,0.0,2.0,83,0.00,,,0.00,WUHU216HW,2013-02-03 17:56:00,
2013-02-03 11:01:00,26.9,22.4,30.17,NE,45,0.0,2.0,83,0.00,,,0.00,WUHU216HW,2013-02-03 18:01:00,
2013-02-03 11:06:00,27.1,22.6,30.17,NE,45,0.0,0.0,83,0.00,,,0.00,WUHU216HW,2013-02-03 18:06:00,
2013-02-03 11:11:00,27.6,22.8,30.17,NE,45,0.0,0.0,82,0.00,,,0.00,WUHU216HW,2013-02-03 18:11:00,
2013-02-03 11:16:00,27.8,23.0,30.17,West,270,0.0,0.0,82,0.00,,,0.00,WUHU216HW,2013-02-03 18:16:00,
2013-02-03 11:21:00,28.0,23.2,30.17,West,270,0.0,0.0,82,0.00,,,0.00,WUHU216HW,2013-02-03 18:21:00,
2013-02-03 11:26:00,28.4,23.5,30.17,West,270,0.0,0.0,82,0.00,,,0.00,WUHU216HW,2013-02-03 18:26:00,
2013-02-03 11:32:00,28.7,23.9,30.17,West,270,0.0,0.0,82,0.00,,,0.00,WUHU216HW,2013-02-03 18:32:00,
2013-02-03 11:37:00,28.7,23.6,30.18,ENE,68,0.0,5.3,81,0.00,,,0.00,WUHU216HW,2013-02-03 18:37:00,
2013-02-03 11:42:00,28.9,23.8,30.18,ENE,68,0.0,5.3,81,0.00,,,0.00,WUHU216HW,2013-02-03 18:42:00,
2013-02-03 11:47:00,28.7,23.6,30.17,ENE,68,0.0,0.0,81,0.00,,,0.00,WUHU216HW,2013-02-03 18:47:00,
2013-02-03 11:52:00,28.9,23.5,30.17,ESE,113,4.9,5.3,80,0.00,,,0.00,WUHU216HW,2013-02-03 18:52:00,
2013-02-03 11:57:00,28.9,23.5,30.16,ESE,113,2.9,5.3,80,0.00,,,0.00,WUHU216HW,2013-02-03 18:57:00,
2013-02-03 12:02:00,29.3,23.9,30.16,ENE,68,2.4,4.9,80,0.00,,,0.00,WUHU216HW,2013-02-03 19:02:00,
2013-02-03 12:07:00,29.6,24.2,30.16,ENE,68,0.0,2.4,80,0.00,,,0.00,WUHU216HW,2013-02-03 19:07:00,
2013-02-03 12:12:00,29.8,24.4,30.16,East,90,0.0,2.4,80,0.00,,,0.00,WUHU216HW,2013-02-03 19:12:00,
2013-02-03 12:17:00,30.0,24.6,30.16,East,90,0.0,0.0,80,0.00,,,0.00,WUHU216HW,2013-02-03 19:17:00,
2013-02-03 12:22:00,30.2,24.8,30.16,ENE,68,0.0,0.0,80,0.00,,,0.00,WUHU216HW,2013-02-03 19:22:00,
2013-02-03 12:27:00,30.3,24.9,30.15,ENE,68,2.6,2.6,80,0.00,,,0.00,WUHU216HW,2013-02-03 19:27:00,
2013-02-03 12:33:00,30.7,25.0,30.15,ENE,68,0.0,2.6,79,0.00,,,0.00,WUHU216HW,2013-02-03 19:33:00,
2013-02-03 12:38:00,30.7,25.3,30.15,NE,45,0.0,0.0,80,0.00,,,0.00,WUHU216HW,2013-02-03 19:38:00,
2013-02-03 12:43:00,31.1,25.3,30.15,ESE,113,1.7,1.7,79,0.00,,,0.00,WUHU216HW,2013-02-03 19:43:00,
2013-02-03 12:48:00,31.4,25.7,30.15,SE,135,1.5,1.7,79,0.00,,,0.00,WUHU216HW,2013-02-03 19:48:00,
2013-02-03 12:54:00,31.8,26.0,30.15,ESE,113,4.2,4.2,79,0.00,,,0.00,WUHU216HW,2013-02-03 19:54:00,
2013-02-03 12:59:00,32.1,26.4,30.15,East,90,2.0,4.2,79,0.00,,,0.00,WUHU216HW,2013-02-03 19:59:00,
2013-02-03 13:05:00,32.5,26.7,30.15,ESE,113,6.0,6.0,79,0.00,,,0.00,WUHU216HW,2013-02-03 20:05:00,
2013-02-03 13:10:00,32.7,26.9,30.15,East,90,0.0,6.0,79,0.00,,,0.00,WUHU216HW,2013-02-03 20:10:00,
2013-02-03 13:16:00,33.0,26.9,30.14,ESE,113,2.0,7.1,78,0.00,,,0.00,WUHU216HW,2013-02-03 20:16:00,
2013-02-03 13:21:00,33.4,27.2,30.14,ENE,68,5.3,7.1,78,0.00,,,0.00,WUHU216HW,2013-02-03 20:21:00,
2013-02-03 13:26:00,33.8,27.5,30.13,NE,45,0.0,5.3,78,0.00,,,0.00,WUHU216HW,2013-02-03 20:26:00,
2013-02-03 13:31:00,34.1,27.7,30.14,NE,45,0.0,2.4,78,0.00,,,0.00,WUHU216HW,2013-02-03 20:31:00,
2013-02-03 13:36:00,34.3,27.7,30.13,ESE,113,3.1,4.2,77,0.00,,,0.00,WUHU216HW,2013-02-03 20:36:00,
2013-02-03 13:41:00,34.5,27.9,30.13,ENE,68,2.9,4.2,77,0.00,,,0.00,WUHU216HW,2013-02-03 20:41:00,
2013-02-03 13:46:00,34.8,28.3,30.13,ESE,113,0.0,6.0,77,0.00,,,0.00,WUHU216HW,2013-02-03 20:46:00,
2013-02-03 13:51:00,35.2,28.3,30.13,East,90,0.0,6.0,76,0.00,,,0.00,WUHU216HW,2013-02-03 20:51:00,
2013-02-03 13:56:00,35.4,28.5,30.13,East,90,3.5,4.4,76,0.00,,,0.00,WUHU216HW,2013-02-03 20:56:00,
2013-02-03 14:01:00,35.4,28.2,30.13,NNE,23,5.5,5.5,75,0.00,,,0.00,WUHU216HW,2013-02-03 21:01:00,
2013-02-03 14:06:00,35.4,28.2,30.12,NE,45,0.0,8.2,75,0.00,,,0.00,WUHU216HW,2013-02-03 21:06:00,
2013-02-03 14:11:00,35.7,28.2,30.13,ESE,113,0.0,8.2,74,0.00,,,0.00,WUHU216HW,2013-02-03 21:11:00,
2013-02-03 14:16:00,35.7,28.2,30.12,ESE,113,0.0,4.4,74,0.00,,,0.00,WUHU216HW,2013-02-03 21:16:00,
2013-02-03 14:21:00,36.1,28.6,30.12,ENE,68,3.3,4.4,74,0.00,,,0.00,WUHU216HW,2013-02-03 21:21:00,
2013-02-03 14:26:00,36.3,28.7,30.12,ENE,68,0.0,3.3,74,0.00,,,0.00,WUHU216HW,2013-02-03 21:26:00,
2013-02-03 14:31:00,36.6,29.1,30.12,East,90,0.0,0.0,74,0.00,,,0.00,WUHU216HW,2013-02-03 21:31:00,
2013-02-03 14:36:00,36.8,29.3,30.12,ENE,68,4.9,4.9,74,0.00,,,0.00,WUHU216HW,2013-02-03 21:36:00,
2013-02-03 14:41:00,37.2,29.0,30.11,SSE,158,0.0,4.9,72,0.00,,,0.00,WUHU216HW,2013-02-03 21:41:00,
2013-02-03 14:48:00,37.5,29.0,30.11,SSE,158,3.5,3.5,71,0.00,,,0.00,WUHU216HW,2013-02-03 21:48:00,
2013-02-03 14:53:00,37.9,29.0,30.11,SSW,203,0.0,3.5,70,0.00,,,0.00,WUHU216HW,2013-02-03 21:53:00,
2013-02-03 14:58:00,38.8,27.2,30.10,WSW,248,9.1,9.1,63,0.00,,,0.00,WUHU216HW,2013-02-03 21:58:00,
2013-02-03 15:03:00,39.0,28.9,30.11,WSW,248,0.0,9.1,67,0.00,,,0.00,WUHU216HW,2013-02-03 22:03:00,
2013-02-03 15:08:00,39.5,28.6,30.10,WSW,248,0.0,9.1,65,0.00,,,0.00,WUHU216HW,2013-02-03 22:08:00,
2013-02-03 15:13:00,39.9,27.8,30.10,WSW,248,2.2,7.6,62,0.00,,,0.00,WUHU216HW,2013-02-03 22:13:00,
2013-02-03 15:18:00,40.2,29.0,30.10,WSW,248,0.0,7.6,64,0.00,,,0.00,WUHU216HW,2013-02-03 22:18:00,
2013-02-03 15:23:00,40.4,28.8,30.10,SSW,203,0.0,5.8,63,0.00,,,0.00,WUHU216HW,2013-02-03 22:23:00,
2013-02-03 15:29:00,40.6,27.8,30.10,South,180,2.9,5.8,60,0.00,,,0.00,WUHU216HW,2013-02-03 22:29:00,
2013-02-03 15:34:00,40.4,26.7,30.11,South,180,9.8,10.9,58,0.00,,,0.00,WUHU216HW,2013-02-03 22:34:00,
2013-02-03 15:39:00,40.4,27.2,30.10,SW,225,8.9,10.9,59,0.00,,,0.00,WUHU216HW,2013-02-03 22:39:00,
2013-02-03 15:44:00,40.4,27.2,30.10,SSW,203,4.4,9.8,59,0.00,,,0.00,WUHU216HW,2013-02-03 22:44:00,
2013-02-03 15:49:00,40.4,27.2,30.10,West,270,5.8,8.9,59,0.00,,,0.00,WUHU216HW,2013-02-03 22:49:00,
2013-02-03 15:54:00,40.4,27.6,30.10,South,180,6.2,8.0,60,0.00,,,0.00,WUHU216HW,2013-02-03 22:54:00,
2013-02-03 15:59:00,40.4,27.6,30.10,WSW,248,0.0,6.2,60,0.00,,,0.00,WUHU216HW,2013-02-03 22:59:00,
2013-02-03 16:04:00,40.6,28.2,30.10,WSW,248,4.2,6.2,59,0.00,,,0.00,WUHU216HW,2013-02-03 23:04:00,
2013-02-03 16:09:00,40.6,27.4,30.11,SSW,203,11.4,11.4,59,0.00,,,0.00,WUHU216HW,2013-02-03 23:09:00,
2013-02-03 16:14:00,40.6,27.8,30.11,WSW,248,0.0,11.4,60,0.00,,,0.00,WUHU216HW,2013-02-03 23:14:00,
2013-02-03 16:19:00,40.6,27.8,30.12,South,180,0.0,11.4,60,0.00,,,0.00,WUHU216HW,2013-02-03 23:19:00,
2013-02-03 16:24:00,40.6,27.8,30.11,SW,225,0.0,2.9,60,0.00,,,0.00,WUHU216HW,2013-02-03 23:24:00,
2013-02-03 16:29:00,40.6,28.2,30.11,SSW,203,0.0,0.0,61,0.00,,,0.00,WUHU216HW,2013-02-03 23:29:00,
2013-02-03 16:34:00,40.4,27.6,30.11,SSW,203,9.8,9.8,60,0.00,,,0.00,WUHU216HW,2013-02-03 23:34:00,
2013-02-03 16:39:00,40.2,27.5,30.10,SW,225,1.3,9.8,60,0.00,,,0.00,WUHU216HW,2013-02-03 23:39:00,
2013-02-03 16:44:00,40.1,27.3,30.11,SW,225,0.0,9.8,60,0.00,,,0.00,WUHU216HW,2013-02-03 23:44:00,
2013-02-03 16:49:00,39.7,27.3,30.10,SSW,203,0.0,2.2,61,0.00,,,0.00,WUHU216HW,2013-02-03 23:49:00,
2013-02-03 16:54:00,39.3,26.9,30.11,SSW,203,3.5,3.5,61,0.00,,,0.00,WUHU216HW,2013-02-03 23:54:00,
2013-02-03 16:59:00,39.0,27.0,30.10,SSW,203,3.1,3.5,62,0.00,,,0.00,WUHU216HW,2013-02-03 23:59:00,
2013-02-03 17:04:00,38.8,26.8,30.10,SSW,203,0.0,3.5,62,0.00,,,0.00,WUHU216HW,2013-02-04 00:04:00,
2013-02-03 17:09:00,38.4,26.9,30.10,SSW,203,0.0,0.0,63,0.00,,,0.00,WUHU216HW,2013-02-04 00:09:00,
2013-02-03 17:14:00,38.1,26.5,30.10,SSW,203,0.0,0.0,63,0.00,,,0.00,WUHU216HW,2013-02-04 00:14:00,
2013-02-03 17:19:00,37.9,26.4,30.10,SSW,203,0.0,4.9,63,0.00,,,0.00,WUHU216HW,2013-02-04 00:19:00,
2013-02-03 17:24:00,37.7,26.2,30.10,SW,225,1.1,4.9,63,0.00,,,0.00,WUHU216HW,2013-02-04 00:24:00,
2013-02-03 17:30:00,37.5,26.0,30.10,SW,225,6.0,6.0,63,0.00,,,0.00,WUHU216HW,2013-02-04 00:30:00,
2013-02-03 17:35:00,37.5,26.0,30.10,SSW,203,0.0,6.0,63,0.00,,,0.00,WUHU216HW,2013-02-04 00:35:00,
2013-02-03 17:40:00,37.5,26.4,30.10,SSW,203,3.3,6.0,64,0.00,,,0.00,WUHU216HW,2013-02-04 00:40:00,
2013-02-03 17:45:00,37.2,26.5,30.10,WNW,293,3.5,3.5,65,0.00,,,0.00,WUHU216HW,2013-02-04 00:45:00,
2013-02-03 17:50:00,37.0,26.7,30.10,West,270,2.9,3.5,66,0.00,,,0.00,WUHU216HW,2013-02-04 00:50:00,
2013-02-03 17:55:00,36.5,26.2,30.11,WSW,248,0.0,3.5,66,0.00,,,0.00,WUHU216HW,2013-02-04 00:55:00,
2013-02-03 18:01:00,36.1,25.8,30.10,SSW,203,0.0,3.1,66,0.00,,,0.00,WUHU216HW,2013-02-04 01:01:00,
2013-02-03 18:06:00,35.9,26.0,30.10,WSW,248,2.6,2.6,67,0.00,,,0.00,WUHU216HW,2013-02-04 01:06:00,
2013-02-03 18:11:00,35.9,25.6,30.11,WNW,293,0.0,6.0,66,0.00,,,0.00,WUHU216HW,2013-02-04 01:11:00,
2013-02-03 18:16:00,36.1,26.2,30.11,SSW,203,7.1,7.1,67,0.00,,,0.00,WUHU216HW,2013-02-04 01:16:00,
2013-02-03 18:21:00,36.3,26.0,30.10,SSW,203,2.6,7.1,66,0.00,,,0.00,WUHU216HW,2013-02-04 01:21:00,
2013-02-03 18:26:00,36.3,26.0,30.11,South,180,3.5,3.5,66,0.00,,,0.00,WUHU216HW,2013-02-04 01:26:00,
2013-02-03 18:31:00,36.5,26.2,30.10,SSW,203,0.0,4.4,66,0.00,,,0.00,WUHU216HW,2013-02-04 01:31:00,
2013-02-03 18:36:00,36.3,26.0,30.10,WSW,248,6.0,6.0,66,0.00,,,0.00,WUHU216HW,2013-02-04 01:36:00,
2013-02-03 18:41:00,36.5,26.2,30.10,WSW,248,0.0,6.0,66,0.00,,,0.00,WUHU216HW,2013-02-04 01:41:00,
2013-02-03 18:46:00,36.5,26.2,30.10,SSW,203,6.0,6.0,66,0.00,,,0.00,WUHU216HW,2013-02-04 01:46:00,
2013-02-03 18:51:00,36.5,26.2,30.10,SW,225,0.0,6.0,66,0.00,,,0.00,WUHU216HW,2013-02-04 01:51:00,
2013-02-03 18:56:00,36.3,26.0,30.10,SW,225,1.3,4.6,66,0.00,,,0.00,WUHU216HW,2013-02-04 01:56:00,
2013-02-03 19:01:00,36.3,26.3,30.09,SSW,203,3.8,4.6,67,0.00,,,0.00,WUHU216HW,2013-02-04 02:01:00,
2013-02-03 19:06:00,36.1,26.2,30.10,SW,225,5.3,5.3,67,0.00,,,0.00,WUHU216HW,2013-02-04 02:06:00,
2013-02-03 19:11:00,36.1,26.2,30.10,SW,225,3.3,5.3,67,0.00,,,0.00,WUHU216HW,2013-02-04 02:11:00,
2013-02-03 19:16:00,35.9,26.0,30.10,SW,225,0.0,5.3,67,0.00,,,0.00,WUHU216HW,2013-02-04 02:16:00,
2013-02-03 19:22:00,35.9,26.0,30.10,WNW,293,4.0,4.0,67,0.00,,,0.00,WUHU216HW,2013-02-04 02:22:00,
2013-02-03 19:27:00,35.9,26.0,30.09,WSW,248,2.4,4.0,67,0.00,,,0.00,WUHU216HW,2013-02-04 02:27:00,
2013-02-03 19:32:00,35.9,26.0,30.09,SSW,203,5.1,5.1,67,0.00,,,0.00,WUHU216HW,2013-02-04 02:32:00,
2013-02-03 19:37:00,35.7,25.8,30.09,West,270,0.0,5.1,67,0.00,,,0.00,WUHU216HW,2013-02-04 02:37:00,
2013-02-03 19:43:00,35.7,25.8,30.09,SSW,203,1.3,5.3,67,0.00,,,0.00,WUHU216HW,2013-02-04 02:43:00,
2013-02-03 19:48:00,35.7,26.2,30.09,SSW,203,1.5,5.3,68,0.00,,,0.00,WUHU216HW,2013-02-04 02:48:00,
2013-02-03 19:53:00,35.7,25.8,30.09,SSW,203,2.4,2.4,67,0.00,,,0.00,WUHU216HW,2013-02-04 02:53:00,
2013-02-03 19:58:00,35.7,26.2,30.09,South,180,0.0,2.6,68,0.00,,,0.00,WUHU216HW,2013-02-04 02:58:00,
2013-02-03 20:04:00,35.4,25.8,30.09,SSW,203,4.0,4.0,68,0.00,,,0.00,WUHU216HW,2013-02-04 03:04:00,
2013-02-03 20:09:00,35.4,25.8,30.09,SSW,203,0.8,4.0,68,0.00,,,0.00,WUHU216HW,2013-02-04 03:09:00,
2013-02-03 20:14:00,35.4,25.8,30.09,WSW,248,0.0,4.0,68,0.00,,,0.00,WUHU216HW,2013-02-04 03:14:00,
2013-02-03 20:19:00,35.4,25.8,30.09,WSW,248,0.0,3.1,68,0.00,,,0.00,WUHU216HW,2013-02-04 03:19:00,
2013-02-03 20:24:00,35.4,26.2,30.10,SSW,203,0.0,0.0,69,0.00,,,0.00,WUHU216HW,2013-02-04 03:24:00,
2013-02-03 20:29:00,35.2,26.0,30.09,SW,225,0.0,0.0,69,0.00,,,0.00,WUHU216HW,2013-02-04 03:29:00,
2013-02-03 20:34:00,35.2,26.0,30.09,SW,225,0.0,3.8,69,0.00,,,0.00,WUHU216HW,2013-02-04 03:34:00,
2013-02-03 20:39:00,34.8,25.7,30.09,WSW,248,0.0,3.8,69,0.00,,,0.00,WUHU216HW,2013-02-04 03:39:00,
2013-02-03 20:44:00,34.8,26.0,30.09,WSW,248,0.0,0.0,70,0.00,,,0.00,WUHU216HW,2013-02-04 03:44:00,
2013-02-03 20:49:00,34.8,26.0,30.09,WSW,248,2.4,4.4,70,0.00,,,0.00,WUHU216HW,2013-02-04 03:49:00,
2013-02-03 20:54:00,34.8,25.7,30.08,WSW,248,0.0,4.4,69,0.00,,,0.00,WUHU216HW,2013-02-04 03:54:00,
2013-02-03 20:59:00,35.0,25.8,30.08,SW,225,3.8,5.1,69,0.00,,,0.00,WUHU216HW,2013-02-04 03:59:00,
2013-02-03 21:04:00,35.4,26.2,30.09,WNW,293,2.0,5.5,69,0.00,,,0.00,WUHU216HW,2013-02-04 04:04:00,
2013-02-03 21:09:00,35.7,26.2,30.09,SW,225,2.2,5.5,68,0.00,,,0.00,WUHU216HW,2013-02-04 04:09:00,
2013-02-03 21:14:00,35.7,26.2,30.09,SW,225,6.4,12.9,68,0.00,,,0.00,WUHU216HW,2013-02-04 04:14:00,
2013-02-03 21:19:00,35.9,26.4,30.09,SSW,203,2.2,12.9,68,0.00,,,0.00,WUHU216HW,2013-02-04 04:19:00,
2013-02-03 21:24:00,35.9,26.4,30.09,WSW,248,3.1,4.9,68,0.00,,,0.00,WUHU216HW,2013-02-04 04:24:00,
2013-02-03 21:29:00,36.1,26.2,30.09,WSW,248,0.0,3.5,67,0.00,,,0.00,WUHU216HW,2013-02-04 04:29:00,
2013-02-03 21:34:00,36.1,26.2,30.09,South,180,4.0,6.9,67,0.00,,,0.00,WUHU216HW,2013-02-04 04:34:00,
2013-02-03 21:39:00,36.1,26.2,30.09,WSW,248,6.7,6.9,67,0.00,,,0.00,WUHU216HW,2013-02-04 04:39:00,
2013-02-03 21:44:00,36.3,26.3,30.09,SSW,203,6.9,6.9,67,0.00,,,0.00,WUHU216HW,2013-02-04 04:44:00,
2013-02-03 21:49:00,36.3,26.3,30.08,SW,225,4.4,6.9,67,0.00,,,0.00,WUHU216HW,2013-02-04 04:49:00,
2013-02-03 21:55:00,36.5,26.2,30.08,WSW,248,7.8,7.8,66,0.00,,,0.00,WUHU216HW,2013-02-04 04:55:00,
2013-02-03 22:00:00,36.6,26.0,30.08,WSW,248,4.4,7.8,65,0.00,,,0.00,WUHU216HW,2013-02-04 05:00:00,
2013-02-03 22:05:00,36.8,26.1,30.08,SSW,203,1.1,6.9,65,0.00,,,0.00,WUHU216HW,2013-02-04 05:05:00,
2013-02-03 22:10:00,36.8,26.5,30.07,WSW,248,5.8,5.8,66,0.00,,,0.00,WUHU216HW,2013-02-04 05:10:00,
2013-02-03 22:16:00,36.8,26.5,30.07,SSW,203,6.9,7.8,66,0.00,,,0.00,WUHU216HW,2013-02-04 05:16:00,
2013-02-03 22:21:00,36.8,26.1,30.07,West,270,4.9,9.3,65,0.00,,,0.00,WUHU216HW,2013-02-04 05:21:00,
2013-02-03 22:26:00,37.0,26.7,30.07,West,270,4.0,9.3,66,0.00,,,0.00,WUHU216HW,2013-02-04 05:26:00,
2013-02-03 22:31:00,37.0,26.3,30.07,SW,225,7.3,7.3,65,0.00,,,0.00,WUHU216HW,2013-02-04 05:31:00,
2013-02-03 22:36:00,37.0,26.3,30.07,South,180,8.5,8.5,65,0.00,,,0.00,WUHU216HW,2013-02-04 05:36:00,
2013-02-03 22:41:00,36.8,26.5,30.07,SW,225,0.0,8.5,66,0.00,,,0.00,WUHU216HW,2013-02-04 05:41:00,
2013-02-03 22:46:00,36.6,26.3,30.07,SW,225,0.0,8.5,66,0.00,,,0.00,WUHU216HW,2013-02-04 05:46:00,
2013-02-03 22:51:00,36.6,26.3,30.07,WSW,248,0.0,4.6,66,0.00,,,0.00,WUHU216HW,2013-02-04 05:51:00,
2013-02-03 22:56:00,36.6,26.3,30.07,SSW,203,2.0,3.5,66,0.00,,,0.00,WUHU216HW,2013-02-04 05:56:00,
2013-02-03 23:01:00,36.6,26.3,30.07,WSW,248,0.0,4.4,66,0.00,,,0.00,WUHU216HW,2013-02-04 06:01:00,
2013-02-03 23:07:00,36.5,26.2,30.07,West,270,0.0,4.4,66,0.00,,,0.00,WUHU216HW,2013-02-04 06:07:00,
2013-02-03 23:12:00,36.3,26.0,30.07,WSW,248,0.0,0.0,66,0.00,,,0.00,WUHU216HW,2013-02-04 06:12:00,
2013-02-03 23:17:00,36.3,26.3,30.07,West,270,0.0,0.0,67,0.00,,,0.00,WUHU216HW,2013-02-04 06:17:00,
2013-02-03 23:22:00,35.9,26.0,30.07,West,270,0.0,3.8,67,0.00,,,0.00,WUHU216HW,2013-02-04 06:22:00,
2013-02-03 23:27:00,35.7,26.2,30.07,SSW,203,3.1,3.8,68,0.00,,,0.00,WUHU216HW,2013-02-04 06:27:00,
2013-02-03 23:32:00,35.4,25.8,30.06,SW,225,0.0,3.1,68,0.00,,,0.00,WUHU216HW,2013-02-04 06:32:00,
2013-02-03 23:38:00,35.4,25.8,30.06,South,180,4.9,4.9,68,0.00,,,0.00,WUHU216HW,2013-02-04 06:38:00,
2013-02-03 23:43:00,35.4,25.8,30.07,WSW,248,4.4,4.9,68,0.00,,,0.00,WUHU216HW,2013-02-04 06:43:00,
2013-02-03 23:48:00,35.6,26.0,30.07,SSW,203,2.9,4.9,68,0.00,,,0.00,WUHU216HW,2013-02-04 06:48:00,
2013-02-03 23:53:00,35.7,26.2,30.07,SW,225,0.0,4.4,68,0.00,,,0.00,WUHU216HW,2013-02-04 06:53:00,
2013-02-03 23:58:00,35.4,26.2,30.07,SW,225,0.0,0.0,69,0.00,,,0.00,WUHU216HW,2013-02-04 06:58:00,